Montague, CA

12:10 AM PDT on July 25, 2017 (GMT -0700)
Siskiyou County

Weather History for KSIY - January, 2015

Change the Weather History Date:

Saturday, January 10, 2015

  Actual Average Record
Temperature  
Mean Temperature 40 °F 35 °F  
Max Temperature 50 °F 44 °F 61 °F (1986)
Min Temperature 30 °F 26 °F 3 °F (1977)
Degree Days  
Heating Degree Days 25 30  
Month to date heating degree days 284 300  
Since 1 July heating degree days 2022 2533  
Cooling Degree Days 0 0  
Month to date cooling degree days 0 0  
Year to date cooling degree days 0 0  
Moisture  
Dew Point 34 °F    
Average Humidity 92    
Maximum Humidity 100    
Minimum Humidity 66    
Precipitation  
Precipitation 0.00 in 0.11 in 0.90 in (1995)
Month to date precipitation 0.00 1.12  
Year to date precipitation 0.00 1.12  
Snow  
Snow 0.00 in - - ()
Month to date snowfall  
Since 1 July snowfall  
Snow Depth -    
Sea Level Pressure  
Sea Level Pressure 30.07 in    
Wind  
Wind Speed 1 mph (SSE)    
Max Wind Speed 6 mph    
Max Gust Speed 7 mph    
Visibility 4 miles    
Events Fog    
T = Trace of Precipitation, MM = Missing Value Source: NWS Daily Summary

Daily Weather History Graph

Daily Weather History Graph

Search for Another Location

Airport or City:

Trip Planner

Search our weather history database for the weather conditions in past years. The results will help you decide how hot, cold, wet, or windy it might be!

Date:

Astronomy

Jan. 10, 2015 Rise Set
Actual Time 7:36 AM PST 4:58 PM PST
Civil Twilight 7:05 AM PST 5:29 PM PST
Nautical Twilight 6:30 AM PST 6:04 PM PST
Astronomical Twilight 5:57 AM PST 6:37 PM PST
Moon 10:37 PM PST (1/10) 10:20 AM PST (1/10)
Length of Visible Light 10h 24m
Length of Day
9h 22m
Waning Gibbous, 74% of the Moon is Illuminated
Jan 10
Waning Gibbous
Jan 13
Last Quarter
Jan 20
New
Jan 26
First Quarter
Feb 3
Full

Hourly Weather History & Observations

Time (PST) Temp. Windchill Dew Point Humidity Pressure Visibility Wind Dir Wind Speed Gust Speed Precip Events Conditions
12:53 AM 36.0 °F - 34.0 °F 93% 30.12 in 7.0 mi Calm Calm - N/A   Clear
1:53 AM 34.0 °F 31.0 °F 33.1 °F 96% 30.12 in 6.0 mi South 3.5 mph - N/A   Mostly Cloudy
2:53 AM 34.0 °F - 32.0 °F 92% 30.12 in 3.0 mi Calm Calm - N/A   Clear
3:08 AM 34.0 °F - 33.1 °F 96% 30.06 in 2.5 mi Calm Calm - N/A   Clear
3:20 AM 34.0 °F 31.0 °F 33.1 °F 96% 30.06 in 3.0 mi SW 3.5 mph - N/A   Clear
3:51 AM 33.8 °F - 32.0 °F 93% 30.05 in 1.5 mi Calm Calm - N/A   Scattered Clouds
3:53 AM 33.1 °F - 30.9 °F 92% 30.11 in 1.0 mi Calm Calm - N/A   Scattered Clouds
4:00 AM 33.1 °F 30.0 °F 30.9 °F 92% 30.05 in 0.5 mi ESE 3.5 mph - N/A Fog Fog
4:10 AM 34.0 °F - 32.0 °F 92% 30.05 in 2.0 mi Calm Calm - N/A   Mostly Cloudy
4:28 AM 35.1 °F - 33.1 °F 92% 30.05 in 3.0 mi Calm Calm - N/A   Mostly Cloudy
4:53 AM 33.1 °F - 32.0 °F 96% 30.10 in 2.0 mi Calm Calm - N/A   Overcast
5:06 AM 33.1 °F - 32.0 °F 96% 30.04 in 3.0 mi Calm Calm - N/A   Overcast
5:18 AM 33.1 °F 30.0 °F 32.0 °F 96% 30.04 in 2.5 mi NNE 3.5 mph - N/A   Overcast
5:53 AM 34.0 °F 31.0 °F 33.1 °F 96% 30.10 in 1.8 mi ENE 3.5 mph - N/A   Partly Cloudy
6:00 AM 33.1 °F 30.0 °F 33.1 °F 100% 30.03 in 2.0 mi NNE 3.5 mph - N/A   Scattered Clouds
6:51 AM 32.0 °F 28.7 °F 30.2 °F 93% 30.04 in 3.0 mi East 3.5 mph - N/A   Mostly Cloudy
6:53 AM 32.0 °F 28.7 °F 30.9 °F 96% 30.11 in 3.0 mi ENE 3.5 mph - N/A   Mostly Cloudy
7:14 AM 32.0 °F 28.7 °F 30.9 °F 96% 30.04 in 2.0 mi WSW 3.5 mph - N/A   Overcast
7:18 AM 32.0 °F 28.7 °F 30.9 °F 96% 30.04 in 0.8 mi West 3.5 mph - N/A   Overcast
7:24 AM 32.0 °F - 30.9 °F 96% 30.04 in 0.5 mi Calm Calm - N/A Fog Fog
7:53 AM 32.0 °F 26.4 °F 32.0 °F 100% 30.12 in 1.0 mi SSW 5.8 mph - N/A   Mostly Cloudy
7:57 AM 32.0 °F 27.5 °F 30.9 °F 96% 30.04 in 0.8 mi SSW 4.6 mph - N/A   Mostly Cloudy
8:22 AM 30.9 °F - 30.0 °F 96% 30.05 in 0.2 mi Calm Calm - N/A Fog Light Freezing Fog
8:53 AM 33.1 °F 30.0 °F 33.1 °F 100% 30.14 in 0.2 mi SSW 3.5 mph - N/A Fog Fog
9:12 AM 36.0 °F - 35.1 °F 97% 30.06 in 1.2 mi Calm Calm - N/A   Overcast
9:17 AM 36.0 °F - 36.0 °F 100% 30.06 in 2.5 mi Calm Calm - N/A   Overcast
9:37 AM 37.0 °F 34.5 °F 36.0 °F 96% 30.07 in 4.0 mi WSW 3.5 mph - N/A   Overcast
9:53 AM 37.9 °F - 37.0 °F 97% 30.13 in 5.0 mi Calm Calm - N/A   Overcast
10:53 AM 41.0 °F - 37.9 °F 89% 30.12 in 7.0 mi Calm Calm - N/A   Mostly Cloudy
11:53 AM 44.1 °F - 39.0 °F 82% 30.09 in 10.0 mi Calm Calm - N/A   Overcast
12:53 PM 45.0 °F - 39.0 °F 80% 30.06 in 10.0 mi Calm Calm - N/A   Overcast
1:53 PM 48.0 °F - 39.9 °F 74% 30.04 in 10.0 mi Calm Calm - N/A   Scattered Clouds
2:53 PM 50.0 °F - 39.9 °F 68% 30.04 in 10.0 mi Calm Calm - N/A   Mostly Cloudy
3:53 PM 48.9 °F - 39.9 °F 71% 30.04 in 10.0 mi SW 4.6 mph - N/A   Overcast
4:53 PM 46.9 °F - 39.9 °F 77% 30.06 in 10.0 mi Calm Calm - N/A   Overcast
5:53 PM 44.1 °F - 39.0 °F 82% 30.07 in 10.0 mi Calm Calm - N/A   Overcast
6:53 PM 41.0 °F - 39.0 °F 93% 30.08 in 10.0 mi Calm Calm - N/A   Mostly Cloudy
7:53 PM 39.9 °F - 37.0 °F 89% 30.09 in 10.0 mi Calm Calm - N/A   Partly Cloudy
8:53 PM 39.9 °F 37.8 °F 37.0 °F 89% 30.10 in 9.0 mi North 3.5 mph - N/A   Clear
9:53 PM 36.0 °F - 34.0 °F 93% 30.11 in 6.0 mi Calm Calm - N/A   Clear
10:17 PM 33.1 °F - 32.0 °F 96% 30.05 in 1.8 mi Calm Calm - N/A   Clear
10:28 PM 33.1 °F - 32.0 °F 96% 30.05 in 0.5 mi Calm Calm - N/A Fog Fog
10:39 PM 35.1 °F - 34.0 °F 96% 30.05 in 0.2 mi Calm Calm - N/A Fog Fog
10:53 PM 33.1 °F - 33.1 °F 100% 30.12 in 0.2 mi Calm Calm - N/A Fog Fog
10:59 PM 32.0 °F 28.7 °F 30.9 °F 96% 30.05 in 1.0 mi ENE 3.5 mph - N/A   Mist
11:01 PM 32.0 °F 28.7 °F 30.9 °F 96% 30.05 in 2.0 mi ENE 3.5 mph - N/A   Partly Cloudy
11:10 PM 32.0 °F - 30.9 °F 96% 30.06 in 4.0 mi Calm Calm - N/A   Partly Cloudy
11:53 PM 30.9 °F - 28.9 °F 92% 30.12 in 6.0 mi Calm Calm - N/A   Scattered Clouds